This is the latest recevied weather packets stored in our database for station/object W1ERB-13. If no packets are shown the sender has not sent any weather packets the latest 10 day(s).
| Time | Temp. | Humidity | Pressure | Rain* | Wind** | Luminosity | Snow |
|---|---|---|---|---|---|---|---|
| 1777666449 | 17.78° C | 35% | 1009.5 hPa | 0 mm | - | 499 W/m² | - |
| 1777666146 | 17.78° C | 34% | 1009.1 hPa | 0 mm | - | 511 W/m² | - |
| 1777665843 | 17.22° C | 34% | 1009.2 hPa | 0 mm | - | 505 W/m² | - |
| 1777665541 | 17.22° C | 33% | 1009.3 hPa | 0 mm | - | 545 W/m² | - |
| 1777665236 | 18.33° C | 32% | 1009.4 hPa | 0 mm | - | 556 W/m² | - |
| 1777664932 | 19.44° C | 30% | 1009.5 hPa | 0 mm | - | 541 W/m² | - |
| 1777664628 | 17.78° C | 37% | 1009.3 hPa | 0 mm | - | 549 W/m² | - |
| 1777664324 | 17.78° C | 32% | 1009.5 hPa | 0 mm | - | 588 W/m² | - |
| 1777664023 | 17.22° C | 34% | 1009.5 hPa | 0 mm | - | 596 W/m² | - |
| 1777663721 | 16.67° C | 33% | 1009.4 hPa | 0 mm | - | 607 W/m² | - |
| 1777663418 | 17.22° C | 36% | 1009.5 hPa | 0 mm | - | 621 W/m² | - |
| 1777663114 | 17.22° C | 34% | 1009.6 hPa | 0 mm | - | 623 W/m² | - |
| 1777662812 | 18.89° C | 34% | 1009.5 hPa | 0 mm | - | 643 W/m² | - |
| 1777662508 | 16.67° C | 37% | 1009.8 hPa | 0 mm | - | 649 W/m² | - |
| 1777662205 | 16.67° C | 35% | 1010 hPa | 0 mm | - | 655 W/m² | - |
| 1777661899 | 17.78° C | 33% | 1009.9 hPa | 0 mm | - | 677 W/m² | - |
| 1777661597 | 17.22° C | 33% | 1010 hPa | 0 mm | - | 709 W/m² | - |
| 1777661292 | 16.67° C | 33% | 1010 hPa | 0 mm | - | 144 W/m² | - |
| 1777660988 | 17.78° C | 42% | 1009.8 hPa | 0 mm | - | 752 W/m² | - |
| 1777660684 | 15.56° C | 35% | 1010.2 hPa | 0 mm | - | 747 W/m² | - |
| 1777660382 | 16.67° C | 33% | 1010.1 hPa | 0 mm | - | 154 W/m² | - |
| 1777660077 | 17.22° C | 34% | 1010 hPa | 0 mm | - | 277 W/m² | - |
| 1777659774 | 16.11° C | 36% | 1010.2 hPa | 0 mm | - | 768 W/m² | - |
| 1777659471 | 16.67° C | 35% | 1010.3 hPa | 0 mm | - | 772 W/m² | - |
| 1777659168 | 16.11° C | 36% | 1010.3 hPa | 0 mm | - | 241 W/m² | - |
* Rain latest hour (hover to see other rain measurements)
** Current wind speed in m/s (hover to see current wind gust speed)